Home > Weather > Russia > Saint-Petersburg > Past weeks

Flag for Russia Weather past 2 weeks in Saint-Petersburg, Russia

36 °F

Sprinkles. Overcast.

Feels Like: 28 °F
Forecast: 32 / 35 °F
Wind: 10 mph from Southwest

Location: St. Petersburg

Current Time: Dec 1, 2015 at 7:43:54 PM

Latest Report: Dec 1, 2015 at 7:00 PM

Visibility: N/A

Pressure: 29.24 "Hg

Humidity: 93%

Dew point: 34 °F

Location of Saint-PetersburgLocation

Historic Weather in Saint-Petersburg — Graph


Saint-Petersburg temperature yesterday

Maximum temperature yesterday: 34 °F (at 4:30 AM)
Minimum temperature yesterday: 32 °F (at 12:00 AM)
Average temperature yesterday: 33 °F

Past Weeks' High & Low Weather Summary

High43 °F (Nov 27, 10:00 PM)100% (Nov 17, 3:30 AM)29.98 "Hg (Nov 17, 3:30 AM)
Low25 °F (Nov 24, 8:30 AM)69% (Nov 26, 12:30 PM)29.03 "Hg (Nov 21, 4:30 AM)
Average34 °F90%29.56 "Hg
* Reported Nov 16 6:00 PM — Dec 1 6:30 PM, Saint-Petersburg, Weather by CustomWeather, © 2015

Note: Actual official high and low records may vary slightly from our data, if they occured in-between our weather recording intervals... More about our weather records


Saint-Petersburg weather history for previous 24 hours

Time TempWeatherWind HumidityBarometerVisibility
6:30 PM
Tue, Dec 1
36 °FSprinkles. Overcast.10 mph93%29.21 "HgN/A
6:00 PM36 °FSprinkles. Overcast.10 mph93%29.21 "Hg6 mi
5:30 PM36 °FSprinkles. Overcast.8 mph93%29.21 "HgN/A
5:00 PM36 °FSprinkles. Cloudy.8 mph93%29.21 "Hg6 mi
4:30 PM36 °FSprinkles. Cloudy.3 mph93%29.21 "Hg6 mi
4:00 PM36 °FCloudy.3 mph93%29.18 "HgN/A
3:30 PM36 °FSprinkles. Cloudy.6 mph93%29.18 "HgN/A
3:00 PM36 °FSprinkles. Cloudy.8 mph87%29.18 "HgN/A
2:30 PM36 °FBroken clouds.6 mph87%29.18 "HgN/A
2:00 PM36 °FBroken clouds.8 mph87%29.15 "HgN/A
1:30 PM37 °FBroken clouds.10 mph87%29.15 "HgN/A
1:00 PM37 °FPartly sunny.10 mph87%29.15 "HgN/A
12:30 PM37 °FPartly sunny.8 mph87%29.15 "HgN/A
12:00 PM36 °FPartly sunny.8 mph87%29.15 "HgN/A
11:30 AM36 °FLight rain. Partly sunny.10 mph93%29.15 "HgN/A
11:00 AM36 °FOvercast.8 mph93%29.15 "HgN/A
10:30 AM36 °FOvercast.10 mph87%29.12 "HgN/A
10:00 AM36 °FOvercast.8 mph87%29.12 "HgN/A
9:30 AM34 °FPassing clouds.6 mph93%29.12 "HgN/A
9:00 AM34 °FPassing clouds.8 mph93%29.12 "HgN/A
8:30 AM34 °FPassing clouds.8 mph93%29.12 "HgN/A
7:30 AM34 °FPartly cloudy.3 mph93%29.12 "HgN/A
6:30 AM34 °FPassing clouds.3 mph100%29.12 "HgN/A
6:00 AM36 °FPassing clouds.3 mph93%29.12 "HgN/A
5:30 AM36 °FPartly cloudy.3 mph93%29.12 "HgN/A
5:00 AM36 °FMostly cloudy.3 mph93%29.12 "HgN/A
3:30 AM36 °FMostly cloudy.3 mph93%29.12 "HgN/A
3:00 AM34 °FMostly cloudy.3 mph100%29.12 "HgN/A
2:30 AM34 °FMostly cloudy.3 mph100%29.12 "HgN/A
2:00 AM34 °FMostly cloudy.3 mph100%29.12 "HgN/A
1:30 AM34 °FMostly cloudy.6 mph93%29.12 "HgN/A
1:00 AM34 °FMostly cloudy.6 mph93%29.15 "HgN/A
12:30 AM34 °FPartly cloudy.6 mph93%29.15 "HgN/A
12:00 AM34 °FLight rain. Partly cloudy.8 mph93%29.15 "HgN/A
11:30 PM
Mon, Nov 30
34 °FPartly cloudy.6 mph93%29.15 "HgN/A
11:00 PM34 °FPartly cloudy.6 mph93%29.15 "HgN/A
10:30 PM34 °FLight snow. Partly cloudy.8 mph93%29.18 "HgN/A
10:00 PM32 °FPartly cloudy.8 mph100%29.18 "HgN/A
9:30 PM34 °FLight snow. Partly cloudy.8 mph93%29.18 "HgN/A
9:00 PM34 °FLight rain. Partly cloudy.10 mph93%29.18 "Hg6 mi
8:30 PM32 °FLight rain. Mostly cloudy.10 mph100%29.21 "HgN/A
8:00 PM32 °FLight rain. Mostly cloudy.10 mph100%29.21 "HgN/A
7:30 PM32 °FLight rain. Mostly cloudy.10 mph100%29.21 "Hg5 mi
7:00 PM32 °FLow clouds.13 mph100%29.21 "HgN/A
Weather by CustomWeather, © 2015

See weather overviewHow to use our weather pages